Regional Weather Roundup
Issued by NWS

Home | Current Version | Previous Version | Graphics & Text | Print | Product List | Glossary On
Versions: 1 2 3 4 5 6 7 8 9 10 11 12 13 14 15 16 17 18 19 20 21 22 23 24 25 26 27 28 29 30 31 32 33 34 35 36 37 38 39 40 41 42 43 44 45 46 47 48 49 50
000
ASUS43 KLOT 012121
RWRIL

ILLINOIS REGIONAL WEATHER ROUNDUP
NATIONAL WEATHER SERVICE CHICAGO/ROMEOVILLE IL
400 PM CDT SAT AUG 01 2015

NOTE: "FAIR" INDICATES FEW OR NO CLOUDS BELOW 12,000 FEET WITH NO
SIGNIFICANT WEATHER AND/OR OBSTRUCTIONS TO VISIBILITY.

* THESE STATIONS ARE NOT UNDER NWS QUALITY CONTROL. THEY ALSO MAY NOT
  REPORT WEATHER SUCH AS PRECIPITATION OR FOG.

ILZ001-002-007-009-015-016-024-012200-
NORTHWEST ILLINOIS

CITY           SKY/WX    TMP DP  RH WIND       PRES   REMARKS
MOLINE         PTSUNNY   87  63  44 W9        29.96F HX  88
STERLING*      MOSUNNY   88  64  45 W13G20    29.91F HX  89
SAVANNA*       MOSUNNY   86  62  44 W12G18    29.94F HX  86
$$

ILZ003-004-008-010-011-017-018-012200-
NORTH CENTRAL ILLINOIS

CITY           SKY/WX    TMP DP  RH WIND       PRES   REMARKS
ROCKFORD       MOSUNNY   86  61  42 W14G20    29.94F HX  86
FREEPORT*      MOSUNNY   84  66  54 W15G21    29.95F HX  86
ROCHELLE*      MOSUNNY   84  63  49 SW14G22   29.95F HX  85
DE KALB*       PTSUNNY   83  63  51 W17G23    29.95F HX  84
PERU*          MOSUNNY   85  60  44 SW10G17   29.97S HX  85
$$

ILZ005-006-012>014-019>023-012200-
NORTHEAST ILLINOIS

CITY           SKY/WX    TMP DP  RH WIND       PRES   REMARKS
CHICAGO-OHARE  PTSUNNY   85  58  39 W16G24    29.92F HX  84
CHICAGO-MIDWAY PTSUNNY   88  55  32 W15G23    29.92F HX  86
AURORA         SUNNY     85  60  42 W17       29.94F HX  85
LANSING*       PTSUNNY   86  55  35 W15G23    29.93F HX  84
JOLIET*        MOSUNNY   86  62  43 SW12      29.94F HX  87
WAUKEGAN       PTSUNNY   84  59  42 SW8       29.91F HX  84
DUPAGE AIRPORT MOSUNNY   83  59  44 SW13      29.94S HX  83
KANKAKEE*      MOSUNNY   85  63  47 W14       29.96F HX  86
WHEELING       MOSUNNY   86  56  35 W14G23    29.93S HX  85
MORRIS*        SUNNY     84  62  46 SW10      29.94F HX  85
ROMEOVILLE*    SUNNY     85  56  36 W14       29.94F HX  84
NORTHERLY ISL    N/A     86  53  32 W13         N/A  HX  84
$$

LMZ740>746-012200-
SOUTHERN LAKE MICHIGAN

STATION/POSITION SKY/WX   TEMP    WIND        PRES    VSBY  WAVE
                          AIR SEA DIR/SP/G                  HT/PER
                          (F)     (DEG/KT/KT) (MB)    (MI)  (FT/S)
HARRISON CRIB              77     130/  5/ 11   N/A
BURNHAM HARBOR             86     240/ 12/ 17   N/A
CALUMET HARBOR             85     250/  5/ 12   N/A
BURNS HARBOR               82      70/  5/  6 1014.2F
MICHIGAN CITY              78      10/  3/  3   N/A
MICHIGAN CITY 6N           79 76  110/  2/  4   N/A           1/ 4
ST. JOSEPH                 76 75  190/  2/  4   N/A           2/ 4
$$

ILZ025>027-034>036-040-047-049-050-058-095>099-012200-
WEST-CENTRAL ILLINOIS

CITY           SKY/WX    TMP DP  RH WIND       PRES   REMARKS
QUINCY         MOSUNNY   86  70  58 SW7       29.99F HX  90
GALESBURG*     SUNNY     84  65  52 SW10      29.98F HX  86
MACOMB*        SUNNY     86  63  46 W3        30.00F HX  86
JACKSONVILLE*  MOSUNNY   88  64  45 S6        29.99F HX  89
PITTSFIELD*    MOSUNNY   85  67  55 S6        30.01F HX  87
$$

ILZ028>032-037-038-041>044-048-051>054-059>061-012200-
CENTRAL ILLINOIS

CITY           SKY/WX    TMP DP  RH WIND       PRES   REMARKS
PONTIAC        MOSUNNY   82  66  58 SW9       29.98S HX  83
BLOOMINGTON    MOSUNNY   84  63  49 W13       30.00F HX  85
DECATUR        PTSUNNY   87  59  38 SW9       30.00F HX  86
PEORIA         MOSUNNY   88  57  34 SW12      29.97F HX  87
LACON*         PTSUNNY   83  62  47 SW7       29.96S HX  84
LINCOLN*       PTSUNNY   88  57  34 W3        29.97F HX  87
SPRINGFIELD    MOSUNNY   87  62  43 VRB7      29.99F HX  87
TAYLORVILLE    MOSUNNY   82  61  47 CALM      30.00F HX  83
$$

ILZ033-039-045-046-055>057-062-063-012200-
EAST-CENTRAL ILLINOIS

CITY           SKY/WX    TMP DP  RH WIND       PRES   REMARKS
CHAMPAIGN      PTSUNNY   83  62  49 SW9       30.00F HX  84
DANVILLE*      MOSUNNY   82  62  50 W6        29.96F HX  82
RANTOUL*       PTSUNNY   85  62  45 W7        29.99S HX  86
MATTOON        MOSUNNY   86  56  35 W6        30.00F HX  85
PARIS*         PTSUNNY   83  61  47 SW5       30.00F HX  83
$$

ILZ079-100>102-012200-
SOUTHWEST ILLINOIS

CITY           SKY/WX    TMP DP  RH WIND       PRES   REMARKS
BELLEVILLE     SUNNY     87  67  50 VRB2      29.99S HX  90
CAHOKIA*       PTSUNNY   90  63  40 SE6       29.99F HX  91
SPARTA*        PTSUNNY   85  66  52 SE5       30.01S HX  87
$$

ILZ064>066-069>071-074>076-080>082-084>086-088>090-092>094-012200-
SOUTH-CENTRAL ILLINOIS

CITY           SKY/WX    TMP DP  RH WIND       PRES   REMARKS
CARBONDALE     SUNNY     88  65  46 CALM      30.00F HX  90
CAIRO*         SUNNY     89  71  55 N3        29.98F HX  94
EFFINGHAM*     MOSUNNY   86  50  28 CALM      30.02S HX  84
MARION         MOSUNNY   88  66  48 S5        30.01F HX  90
MT. VERNON     SUNNY     88  59  37 S5        30.01S HX  87
CENTRALIA*     MOSUNNY   88  55  32 CALM      30.00F HX  86
SALEM*         MOSUNNY   87  55  33 CALM      30.01S HX  85
METROPOLIS*    SUNNY     89  70  54 N3        29.99F HX  93
$$

ILZ067-068-072-073-078-083-087-091-012200-
SOUTHEAST ILLINOIS

CITY           SKY/WX    TMP DP  RH WIND       PRES   REMARKS
LAWRENCEVILLE  PTSUNNY   86  58  38 N8        30.00F HX  85
FLORA*         PTSUNNY   86  55  35 CALM      30.01S HX  84
FAIRFIELD*     MOSUNNY   86  60  41 CALM      29.99F HX  85
HARRISBURG*    SUNNY     86  58  38 CALM      30.01F HX  85
ROBINSON*      MOSUNNY   85  57  38 CALM      30.01F HX  84
CARMI*         MOSUNNY   86  53  31 CALM      29.99F HX  84
$$

ABBREVIATIONS USED IN REMARKS
   TC - TEMPERATURE IN CELSIUS
  WCI - WIND CHILL INDEX
   HX - HEAT INDEX
  VSB - VISIBILITY
$$




USA.gov is the U.S. government's official web portal to all federal, state and local government web resources and services.